• Join FlightAware (Why Join?)
  • Login
  • US Flag GB Flag 
07:06 EST


 

Airport Tracker/Info


-or-


 

Live Flight TrackerFlight Track Log ✈ SWA3584 ✈ 12-Apr-2013 ✈ KPHL - KBNA

Flight Track Log - Related Links

Times and Time Zones

All times are in EDT time to prevent confusion due to time zone crossing. See the SWA3584 flight status page for this flight to view local times or setup timezone preferences in your user account.

Time Position Orientation Groundspeed Altitude Reporting Facility
EDT Latitude Longitude Course Direction KTS MPH feet Rate Location/Type
11:16 39.8833 -75.2167 87° East 168 193 1,100  Level Philadelphia TRACON
11:17 39.8842 -75.1947 87° East 179 206 1,500 1,200 Climbing FAA TRACON SMA TRACON (SMA)
11:17 39.8956 -75.1681 61° Northeast 220 253 2,000 1,620 Climbing FAA TRACON SMA TRACON (SMA)
11:17 39.9036 -75.1433 67° East 250 288 2,600 2,100 Climbing FAA TRACON SMA TRACON (SMA)
11:18 39.9139 -75.1161 64° Northeast 269 310 3,400 2,700 Climbing FAA TRACON SMA TRACON (SMA)
11:18 39.9278 -75.0839 61° Northeast 277 319 4,400 2,700 Climbing FAA TRACON SMA TRACON (SMA)
11:18 39.9492 -75.0711 25° Northeast 276 318 5,200 2,220 Climbing FAA TRACON SMA TRACON (SMA)
11:19 39.9708 -75.0764 349° North 254 292 5,900 1,200 Climbing FAA TRACON SMA TRACON (SMA)
11:19 39.9989 -75.0853 346° North 260 299 6,000 120 Climbing FAA TRACON SMA TRACON (SMA)
11:19 40.0208 -75.0931 345° North 266 306 6,000  Level FAA TRACON SMA TRACON (SMA)
11:20 40.0408 -75.1033 339° North 260 299 6,000 300 Level FAA TRACON SMA TRACON (SMA)
11:20 40.0578 -75.1308 309° West 252 290 6,200 1,320 Climbing FAA TRACON SMA TRACON (SMA)
11:20 40.0706 -75.1536 306° West 263 303 6,900 2,820 Climbing FAA TRACON SMA TRACON (SMA)
11:21 40.0875 -75.1842 306° West 267 307 8,100 3,120 Climbing FAA TRACON SMA TRACON (SMA)
11:21 40.0994 -75.2106 301° West 278 320 9,000 2,520 Climbing FAA TRACON SMA TRACON (SMA)
11:21 40.0953 -75.2378 259° West 243 280 9,800 1,500 Climbing FAA TRACON SMA TRACON (SMA)
11:22 40.0806 -75.2683 238° Southwest 278 320 10,000 300 Climbing FAA TRACON SMA TRACON (SMA)
11:22 40.0686 -75.2964 241° Southwest 295 339 10,000  Level FAA TRACON SMA TRACON (SMA)
11:22 40.0561 -75.3278 243° Southwest 302 348 10,000  Level FAA TRACON SMA TRACON (SMA)
11:23 40.0419 -75.3667 245° Southwest 309 356 10,000  Level FAA TRACON SMA TRACON (SMA)
11:23 40.0372 -75.4014 260° West 329 379 10,000  Level FAA TRACON SMA TRACON (SMA)
11:23 40.0350 -75.4361 265° West 313 360 10,000  Level FAA TRACON SMA TRACON (SMA)
11:24 40.0317 -75.4775 264° West 317 365 10,000  Level FAA TRACON SMA TRACON (SMA)
11:24 40.0294 -75.5147 266° West 315 362 10,000 300 Level FAA TRACON SMA TRACON (SMA)
11:24 40.0261 -75.5492 263° West 313 360 10,200 2,700 Climbing FAA TRACON SMA TRACON (SMA)
11:25 40.0228 -75.5914 264° West 307 353 11,800 3,720 Climbing FAA TRACON SMA TRACON (SMA)
11:25 40.0200 -75.6225 263° West 289 333 12,700 2,220 Climbing FAA TRACON SMA TRACON (SMA)
11:25 40.0175 -75.6556 264° West 294 338 13,300 2,100 Climbing FAA TRACON SMA TRACON (SMA)
11:26 40.0142 -75.6981 264° West 305 351 14,100 2,700 Climbing FAA TRACON SMA TRACON (SMA)
11:26 40.0111 -75.7308 263° West 306 352 15,100 3,000 Climbing FAA TRACON SMA TRACON (SMA)
11:26 40.0086 -75.7658 265° West 304 350 16,100 2,820 Climbing FAA TRACON SMA TRACON (SMA)
11:27 40.0050 -75.8075 264° West 302 348 17,000 2,220 Climbing FAA TRACON SMA TRACON (SMA)
11:27 40.0022 -75.8414 264° West 305 351 17,600 1,800 Climbing FAA TRACON SMA TRACON (SMA)
11:27 39.9989 -75.8747 263° West 308 354 18,200 900 Climbing FAA TRACON SMA TRACON (SMA)
11:28 39.9989 -75.8747 237° Southwest 308 354 18,200 1,560 Level FAA TRACON SMA TRACON (SMA)
11:29 39.9842 -76.1108 265° West 326 375 21,400 1,560 Climbing New York Center
11:30 39.9683 -76.2342 261° West 362 417 22,400 1,200 Climbing New York Center
11:31 39.9553 -76.3767 263° West 388 447 23,800 1,740 Climbing New York Center
11:33 39.8694 -76.6403 247° West 378 435 27,500 1,980 Climbing Washington Center
11:34 39.8206 -76.7639 243° Southwest 383 441 29,600 1,740 Climbing Washington Center
11:35 39.7733 -76.8819 243° Southwest 378 435 31,000 1,380 Climbing Washington Center
11:36 39.7306 -76.9892 243° Southwest 378 435 32,400 1,500 Climbing Washington Center
11:37 39.6833 -77.1122 244° Southwest 368 423 34,000 1,020 Climbing Washington Center
11:38 39.6358 -77.2272 242° Southwest 363 418 34,500 660 Climbing Washington Center
11:39 39.5947 -77.3339 243° Southwest 363 418 35,400 720 Climbing Washington Center
11:40 39.5450 -77.4564 242° Southwest 363 418 36,000 300 Climbing Washington Center
11:41 39.5039 -77.5575 242° Southwest 363 418 36,000  Level Washington Center
11:42 39.4539 -77.6828 243° Southwest 363 418 36,000  Level Washington Center
11:43 39.4125 -77.7861 243° Southwest 363 418 36,000  Level Washington Center
11:44 39.3706 -77.9003 245° Southwest 362 417 36,000  Level Washington Center
11:45 39.3267 -78.0144 244° Southwest 362 417 36,000  Level Washington Center
11:46 39.2678 -78.1411 239° Southwest 373 429 36,000  Level Washington Center
11:47 39.2239 -78.2519 243° Southwest 363 418 36,000  Level Washington Center
11:48 39.1775 -78.3681 243° Southwest 363 418 36,000  Level Washington Center
11:49 39.1331 -78.4789 243° Southwest 363 418 36,000  Level Washington Center
11:50 39.0864 -78.5947 243° Southwest 363 418 36,000  Level Washington Center
11:51 39.0439 -78.7133 245° Southwest 368 423 36,000  Level Washington Center
11:52 38.9992 -78.8261 243° Southwest 368 423 36,000  Level Washington Center
11:53 38.9483 -78.9333 239° Southwest 360 414 36,000  Level Washington Center
11:54 38.9014 -79.0486 242° Southwest 355 409 36,000  Level Washington Center
11:55 38.8628 -79.1536 245° Southwest 355 409 36,000  Level Washington Center
11:56 38.8300 -79.2692 250° West 356 410 36,000  Level Washington Center
11:57 38.8072 -79.4039 258° West 350 403 36,000  Level Washington Center
11:58 38.7844 -79.5278 257° West 356 410 36,000  Level Washington Center
11:59 38.7636 -79.6492 258° West 356 410 36,000  Level Washington Center
12:00 38.7408 -79.7678 256° West 356 410 36,000  Level Washington Center
12:01 38.7222 -79.8786 258° West 356 410 36,000  Level Washington Center
12:02 38.6972 -79.9969 255° West 356 410 36,000  Level Washington Center
12:04 38.6558 -80.2006 255° West 348 400 36,000  Level Indianapolis Center
12:05 38.6339 -80.3200 257° West 345 397 36,000  Level Indianapolis Center
12:06 38.6147 -80.4406 259° West 348 400 36,000  Level Indianapolis Center
12:07 38.6078 -80.5869 267° West 344 396 36,000  Level Indianapolis Center
12:08 38.6017 -80.7094 266° West 345 397 36,000  Level Indianapolis Center
12:09 38.5956 -80.8311 266° West 343 395 36,000  Level Indianapolis Center
12:10 38.5894 -80.9547 266° West 346 398 36,000  Level Indianapolis Center
12:11 38.5839 -81.0756 267° West 341 392 36,000  Level Indianapolis Center
12:12 38.5797 -81.1992 268° West 345 397 36,000  Level Indianapolis Center
12:13 38.5753 -81.3217 267° West 343 395 36,000  Level Indianapolis Center
12:14 38.5553 -81.4403 258° West 345 397 36,000  Level Indianapolis Center
12:15 38.5125 -81.5483 243° Southwest 336 387 36,000  Level Indianapolis Center
12:16 38.4697 -81.6553 243° Southwest 334 384 36,000  Level Indianapolis Center
12:17 38.4258 -81.7614 242° Southwest 334 384 36,000  Level Indianapolis Center
12:18 38.3839 -81.8658 243° Southwest 331 381 36,000  Level Indianapolis Center
12:19 38.3317 -81.9911 242° Southwest 333 383 36,000  Level Indianapolis Center
12:20 38.2897 -82.0967 243° Southwest 333 383 36,000  Level Indianapolis Center
12:21 38.2456 -82.2003 242° Southwest 333 383 36,000  Level Indianapolis Center
12:22 38.2022 -82.3047 242° Southwest 334 384 36,000  Level Indianapolis Center
12:23 38.1575 -82.4078 241° Southwest 332 382 36,000  Level Indianapolis Center
12:24 38.1136 -82.5056 240° Southwest 331 381 36,000  Level Indianapolis Center
12:25 38.0597 -82.6222 240° Southwest 329 379 36,000  Level Indianapolis Center
12:26 38.0144 -82.7233 240° Southwest 329 379 36,000  Level Indianapolis Center
12:27 37.9692 -82.8244 240° Southwest 330 380 36,000  Level Indianapolis Center
12:29 37.9225 -82.9258 240° Southwest 333 383 36,000  Level Indianapolis Center
12:30 37.8767 -83.0264 240° Southwest 330 380 36,000 -240 Level Indianapolis Center
12:31 37.8306 -83.1269 240° Southwest 330 380 35,600 -780 Descending Indianapolis Center
12:32 37.7772 -83.2447 240° Southwest 331 381 34,400 -840 Descending Indianapolis Center
12:33 37.7306 -83.3458 240° Southwest 333 383 34,000 -240 Descending Indianapolis Center
12:34 37.6825 -83.4478 239° Southwest 337 388 34,000  Level Indianapolis Center
12:35 37.6356 -83.5503 240° Southwest 336 387 34,000  Level Indianapolis Center
12:36 37.5878 -83.6522 239° Southwest 338 389 34,000 -60 Level Indianapolis Center
12:37 37.5414 -83.7519 240° Southwest 333 383 33,900 -540 Descending Indianapolis Center
12:38 37.4939 -83.8544 240° Southwest 336 387 33,000 -480 Descending Indianapolis Center
12:39 37.4369 -83.9744 239° Southwest 341 392 33,000  Level Indianapolis Center
12:40 37.3881 -84.0781 239° Southwest 343 395 33,000  Level Indianapolis Center
12:41 37.3392 -84.1817 239° Southwest 345 397 33,000 -420 Level Indianapolis Center
12:42 37.2894 -84.2850 239° Southwest 346 398 32,200 -540 Descending Indianapolis Center
12:43 37.2408 -84.3892 240° Southwest 346 398 32,000 -120 Descending Indianapolis Center
12:44 37.1922 -84.4922 239° Southwest 343 395 32,000 -540 Level Indianapolis Center
12:45 37.1333 -84.6119 238° Southwest 344 396 31,000 -1,020 Descending Indianapolis Center
12:46 37.0839 -84.7175 240° Southwest 352 405 30,000 -960 Descending Indianapolis Center
12:47 37.0328 -84.8214 238° Southwest 355 409 29,100 -960 Descending Indianapolis Center
12:48 36.9828 -84.9264 239° Southwest 353 406 28,100 -1,020 Descending Indianapolis Center
12:49 36.9308 -85.0333 239° Southwest 359 413 27,100 -1,080 Descending Indianapolis Center
12:50 36.8706 -85.1581 239° Southwest 352 405 25,900 -1,080 Descending Indianapolis Center
12:51 36.8203 -85.2592 238° Southwest 346 398 24,900 -1,500 Descending Indianapolis Center
12:52 36.7717 -85.3575 238° Southwest 335 386 22,800 -1,740 Descending Indianapolis Center
12:53 36.7417 -85.4142 237° Southwest 347 399 22,000 -540 Descending Memphis Center
12:54 36.6958 -85.5206 242° Southwest 336 387 22,000  Level Memphis Center
12:55 36.6514 -85.6086 238° Southwest 331 381 22,000 -240 Level Memphis Center
12:56 36.6050 -85.7069 240° Southwest 331 381 21,600 -1,020 Descending Memphis Center
12:57 36.5625 -85.7997 240° Southwest 319 367 20,000 -1,380 Descending Memphis Center
12:58 36.5181 -85.8925 239° Southwest 312 359 18,900 -1,500 Descending Memphis Center
12:59 36.4794 -85.9772 240° Southwest 300 345 17,000 -1,980 Descending Memphis Center
13:00 36.4344 -86.0650 238° Southwest 297 342 15,000 -2,040 Descending Memphis Center
13:01 36.3939 -86.1547 241° Southwest 302 348 13,000 -1,800 Descending Memphis Center
13:02 36.3586 -86.2286 239° Southwest 297 342 11,400 -1,500 Descending Memphis Center
13:03 36.3197 -86.3078 239° Southwest 292 336 10,100 -1,200 Descending Memphis Center
13:04 36.2844 -86.3792 239° Southwest 267 307 9,100 -1,200 Descending Memphis Center
13:05 36.2531 -86.4450 239° Southwest 240 276 7,800 -1,320 Descending Memphis Center
13:06 36.2197 -86.5108 238° Southwest 235 270 6,500 -1,140 Descending Memphis Center
13:07 36.1542 -86.5475 204° Southwest 228 262 5,600 -960 Descending Memphis Center
13:08 36.0922 -86.5683 195° South 233 268 4,600 -840 Descending Memphis Center
13:09 36.0558 -86.6061 220° Southwest 181 208 4,000 -1,260 Descending Memphis Center
13:10 36.0594 -86.6572 275° West 139 160 2,200 -1,500 Descending Memphis Center
13:11 36.0914 -86.6764 334° Northwest 118 136 1,100 -780 Descending Memphis Center
13:12 36.1189 -86.6853 345° North 112 129 700 -420 Descending Memphis Center
13:14 36.1167 -86.6667 287° West  Level FlightAware Approximate
13:21 36.1245 -86.6782 287° West  Level Estimated
13:22 36.1245 -86.6782 287° West  Level Estimated
13:23 36.1245 -86.6782 287° West  Level Estimated
13:24 36.1245 -86.6782 287° West  Level Estimated
13:25 36.1245 -86.6782 287° West  Level Estimated